Location: G�sincourt
(47.7710°N, 5.9723°E)
Time: 23:57:50
(UTC+00:00)

Daily predictions for brighter satellites

Satellite Brightness Start Highest point End
(mag) Time Altitude Azimuth Time Altitude Azimuth Time Altitude Azimuth
Cosmos 2251 Rocket 4.4 19:48:44 10° NNW 19:53:47 49° WSW 19:58:47 10° S
Cosmos 1544 4.1 19:52:41 10° N 19:55:59 31° ENE 19:59:14 10° SE
Cosmos 2082 Rocket 3.9 19:51:49 10° N 19:56:18 23° NE 20:00:46 10° E
STARLINK-1158 4.0 19:54:23 10° WNW 19:58:27 56° SW 20:02:31 10° SE
Cosmos 1908 Rocket 3.6 19:55:14 10° N 19:59:42 84° E 20:04:10 10° S
STARLINK-1088 4.1 19:56:37 10° WNW 20:00:43 59° NNE 20:04:49 10° E
STARLINK-1162 4.1 19:59:21 10° WNW 20:03:24 52° SW 20:07:24 10° SE
ERS-1 Rocket 4.2 20:01:08 10° ESE 20:05:20 28° ENE 20:09:34 10° N
Cosmos 1833 Rocket 3.7 20:00:28 10° NNW 20:05:37 35° NE 20:10:43 10° ESE
STARLINK-1115 4.0 20:01:35 10° WNW 20:05:42 62° NNE 20:09:48 10° ESE
Cosmos 1975 3.2 20:04:09 10° N 20:08:07 49° ENE 20:12:03 10° SSE
STARLINK-1201 4.4 20:05:30 10° SSW 20:09:06 29° SE 20:12:43 10° ENE
Tsikada Rocket 4.0 20:03:53 10° S 20:10:01 68° E 20:16:09 10° NNE
Resurs 1-3 4.3 20:06:00 10° S 20:10:19 56° W 20:14:39 10° NNW
Spot 2 Rocket 3.8 20:05:41 10° SE 20:10:34 54° ENE 20:15:30 10° N
STARLINK-1076 3.9 20:06:33 10° WNW 20:10:42 65° NNE 20:14:48 10° ESE
Meteor 2-9 Rocket 4.3 20:07:02 10° N 20:12:26 59° ENE 20:17:41 10° SSE
CZ-2C R/B 3.0 20:07:10 10° N 20:12:45 76° WNW 20:18:21 10° SSW
STARLINK-1159 4.3 20:09:22 10° WNW 20:13:20 44° SW 20:17:12 10° SE
STARLINK-1206 4.3 20:10:22 10° SSW 20:14:03 32° SE 20:17:44 10° ENE
CZ-2C R/B 4.4 20:11:06 10° N 20:15:29 59° WNW 20:19:54 10° SSW
STARLINK-1092 3.9 20:11:31 10° WNW 20:15:39 68° NNE 20:19:47 10° ESE
Cosmos 389 Rocket 2.5 20:13:51 10° SSW 20:17:17 84° WNW 20:20:48 10° N
STARLINK-1171 4.4 20:14:24 10° WNW 20:18:18 41° SW 20:22:00 11° SSE
Cosmos 2056 Rocket 3.7 20:13:48 10° S 20:18:40 46° ESE 20:23:34 10° NNE
Cosmos 2242 Rocket 4.0 20:14:18 10° SSW 20:18:41 67° W 20:23:05 10° N
SL-4 R/B 3.8 20:16:44 10° N 20:18:43 15° NE 20:20:39 10° ENE
STARLINK-1205 4.2 20:15:15 10° SSW 20:19:00 34° SE 20:22:46 10° ENE
Okean 1 3.3 20:15:35 10° S 20:19:38 89° E 20:23:43 10° N
STARLINK-1080 3.8 20:16:32 10° WNW 20:20:42 72° NNE 20:24:49 10° ESE
ISS -2.6 20:20:32 10° WNW 20:23:46 42° N 20:27:00 10° E
STARLINK-1218 4.1 20:20:07 10° SSW 20:23:57 37° SE 20:27:47 10° ENE
Iridium 51 4.4 20:20:27 10° S 20:24:33 63° E 20:28:20 10° N
Cosmos 909 Rocket 4.5 20:16:31 10° NW 20:24:45 84° WSW 20:31:07 11° SSE
STARLINK-1090 3.7 20:21:30 10° WNW 20:25:41 76° NNE 20:29:41 11° ESE
Meteor 1-19 Rocket 4.2 20:21:45 10° S 20:27:17 70° E 20:33:02 10° NNE
Cosmos 44 Rocket 4.4 20:22:49 10° NW 20:27:19 38° WSW 20:31:52 10° S
STARLINK-1254 4.0 20:25:02 10° SSW 20:28:54 40° SE 20:32:48 10° ENE
STARLINK-67 4.5 20:28:19 10° WNW 20:29:56 21° NNW 20:31:34 10° NE
SL-8 R/B 3.7 20:25:20 10° WSW 20:30:08 80° SSE 20:34:58 10° ENE
STARLINK-1089 3.7 20:26:30 10° WNW 20:30:39 80° NNE 20:34:28 12° ESE
Cosmos 2278 Rocket 2.7 20:26:27 10° S 20:31:38 38° ESE 20:36:50 10° NE
CARTOSAT-1 4.4 20:28:14 13° SE 20:31:42 37° ENE 20:35:43 10° N
STARLINK-1231 3.9 20:29:57 10° SSW 20:33:52 43° SE 20:37:49 10° ENE
Cosmos 1356 3.8 20:30:26 10° NNW 20:33:52 64° W 20:37:16 10° S
STARLINK-1107 3.6 20:31:28 10° WNW 20:35:38 84° NNE 20:39:15 13° ESE
Meteor 1-18 Rocket 4.3 20:31:17 10° SSW 20:36:51 84° W 20:42:32 10° N
Cosmos 1437 Rocket 4.4 20:37:00 14° ESE 20:38:36 18° E 20:41:11 10° NE
STARLINK-1232 3.8 20:34:52 10° SW 20:38:50 47° SE 20:42:49 10° ENE
Lacrosse 5 2.7 20:34:42 10° NW 20:39:37 47° NNE 20:44:31 10° E
NOSS 2-3 (E) 3.6 20:35:48 10° SSW 20:40:02 68° SE 20:45:05 10° NE
STARLINK-1066 3.6 20:36:28 10° WNW 20:40:37 89° NNE 20:44:02 15° ESE
Terra 2.8 20:38:31 14° SE 20:42:04 34° ENE 20:46:22 10° N
Cosmos 1844 Rocket 3.9 20:36:45 10° SW 20:42:12 47° NW 20:47:42 10° NNE
STARLINK-1208 3.7 20:39:46 10° SW 20:43:46 50° SE 20:47:48 10° ENE
STARLINK-1228 3.4 20:41:11 10° WSW 20:44:31 69° NNW 20:47:51 10° ENE
STARLINK-1081 3.6 20:41:27 10° WNW 20:45:37 86° SSW 20:48:49 16° ESE
IGS 5A 3.5 20:44:11 13° SSE 20:47:51 85° WSW 20:52:02 10° NNW
STARLINK-1234 3.2 20:45:02 10° WSW 20:48:09 67° NNW 20:51:15 10° ENE
STARLINK-1271 3.7 20:44:43 10° SW 20:48:45 54° SE 20:52:49 10° ENE
STARLINK-1212 2.9 20:46:22 10° WSW 20:49:28 82° NNW 20:52:35 10° ENE
Cosmos 1452 Rocket 4.3 20:45:55 14° SSE 20:49:44 33° ESE 20:54:26 10° NE
STARLINK-1209 3.4 20:46:47 10° WSW 20:49:54 63° NNW 20:53:02 10° ENE
STARLINK-1105 2.9 20:46:51 10° WSW 20:49:57 82° NNW 20:53:03 10° ENE
STARLINK-1070 3.6 20:46:24 10° WNW 20:50:34 81° SSW 20:53:35 18° SE
Cosmos 2084 Rocket 4.4 20:46:39 10° WSW 20:50:50 51° NW 20:55:07 10° NE
Cosmos 2142 Rocket 4.5 20:44:42 10° N 20:50:51 75° E 20:56:11 14° SSE
STARLINK-1247 2.9 20:47:44 10° WSW 20:50:51 81° NNW 20:53:59 10° ENE
Cosmos 1515 4.1 20:47:19 10° SSW 20:51:07 66° W 20:54:57 10° N
Cosmos 1300 Rocket 3.8 20:46:51 10° N 20:51:15 59° ENE 20:54:26 18° SSE
STARLINK-1227 2.9 20:48:13 10° WSW 20:51:19 80° NNW 20:54:25 10° ENE
Okean 3 3.5 20:47:56 12° S 20:51:55 64° E 20:56:12 10° NNE
STARLINK-1226 2.9 20:49:04 10° WSW 20:52:10 79° NNW 20:55:17 10° ENE
Crew Dragon 1.6 20:50:28 10° WNW 20:52:25 31° N 20:54:13 12° ENE
STARLINK-1079 4.5 20:48:39 10° WNW 20:52:41 48° NNE 20:56:42 10° E
Cosmos 407 Rocket 4.2 20:47:41 10° NNW 20:52:50 51° WSW 20:57:50 11° S
STARLINK-1215 3.0 20:50:00 10° WSW 20:53:07 78° NNW 20:56:14 10° ENE
STARLINK-1154 3.6 20:49:39 10° SW 20:53:43 58° SE 20:57:48 10° ENE
USA 245 3.4 20:50:55 13° S 20:54:13 57° WSW 20:57:15 10° NNW
STARLINK-1217 3.0 20:51:46 10° WSW 20:54:53 76° NNW 20:58:00 10° ENE
STARLINK-1069 3.6 20:51:23 10° WNW 20:55:32 76° SSW 20:58:22 20° SE
STARLINK-1229 3.0 20:52:41 10° WSW 20:55:48 75° NNW 20:58:56 10° ENE
Cosmos 1420 Rocket 4.2 20:51:20 10° S 20:56:22 52° ESE 21:01:25 10° NNE
STARLINK-1270 3.0 20:53:33 10° WSW 20:56:40 74° NNW 20:59:47 10° ENE
STARLINK-1116 4.4 20:53:38 10° WNW 20:57:41 50° NNE 21:01:43 10° E
STARLINK-1189 3.1 20:55:24 10° WSW 20:58:31 72° NNW 21:01:38 10° ENE
STARLINK-1197 3.5 20:54:35 10° SW 20:58:41 63° SSE 21:02:47 10° ENE
Cosmos 2221 Rocket 3.6 20:54:39 12° S 20:58:48 72° E 21:03:20 10° NNE
Okean 1-7 4.2 20:55:14 10° SSW 20:59:18 42° WNW 21:03:23 10° N
STARLINK-1188 3.1 20:56:16 10° WSW 20:59:23 71° NNW 21:02:30 10° ENE
NOSS 2-3 (D) 3.7 20:55:40 10° SW 20:59:58 90° SE 21:05:07 10° NE
STARLINK-1235 3.5 20:57:02 10° WSW 21:00:05 59° NNW 21:03:10 10° ENE
STARLINK-1187 3.3 20:57:26 10° WSW 21:00:30 64° NNW 21:03:35 10° ENE
STARLINK-1085 3.6 20:56:23 10° WNW 21:00:31 71° SSW 21:03:10 21° SE
COSMOS 2406 3.5 20:55:43 10° NNW 21:01:28 67° WSW 21:06:00 17° SSE
Meteor 1-13 Rocket 4.4 20:56:55 14° S 21:01:40 57° E 21:07:14 10° NNE
STARLINK-1191 3.2 20:58:46 10° WSW 21:01:51 68° NNW 21:04:57 10° ENE
STARLINK-1221 3.2 20:59:40 10° WSW 21:02:44 67° NNW 21:05:49 10° ENE
Cosmos 371 Rocket 3.8 21:00:02 17° SSE 21:03:20 40° ESE 21:07:53 10° NE
STARLINK-1222 3.2 21:00:32 10° WSW 21:03:37 67° NNW 21:06:43 10° ENE
STARLINK-1198 3.5 20:59:32 10° SW 21:03:38 68° SSE 21:07:45 10° ENE
STARLINK-1214 3.2 21:01:28 10° WSW 21:04:33 66° NNW 21:07:38 10° ENE
Resurs 01 Rocket 3.6 21:01:17 10° SSW 21:04:54 24° W 21:08:33 10° NW
Meteor 2-4 Rocket 3.6 20:59:42 10° S 21:05:06 89° ESE 21:10:30 10° NNE
STARLINK-1086 3.7 21:01:23 10° WNW 21:05:30 67° SSW 21:07:57 23° SE
USA 215 3.8 20:59:30 10° E 21:05:54 57° NNE 21:12:17 10° NW
Abrixas rocket 1.8 21:03:53 10° W 21:06:51 86° N 21:09:45 10° E
SPOT 1/Viking Rocket 3.7 21:02:31 15° S 21:06:54 71° WSW 21:12:04 10° NNW
Cosmos 1674 Rocket 4.2 21:04:49 21° SSE 21:07:08 38° E 21:11:13 10° NNE
STARLINK-1094 4.3 21:03:37 10° WNW 21:07:41 53° NNE 21:11:33 11° E
CREW DRAGON DEMO-1 DEB 4.5 21:05:38 10° W 21:08:09 22° SW 21:09:01 20° SSW
STARLINK-1199 3.5 21:04:31 10° SW 21:08:38 72° SSE 21:12:47 10° ENE
Sich 1 Rocket 4.4 21:05:31 10° NNW 21:09:58 50° W 21:14:01 12° SSW
STARLINK-1095 3.7 21:06:21 10° WNW 21:10:27 62° SSW 21:12:43 25° SE
USA 229 DEB 4.4 21:04:30 10° WSW 21:10:58 57° NW 21:17:50 10° NE
USA 229 4.4 21:04:37 10° WSW 21:11:05 58° NW 21:17:56 10° NE
Meteor 1-4 Rocket 3.5 21:07:52 10° SSW 21:11:11 45° WNW 21:14:32 10° N
STARLINK-1117 4.2 21:08:35 10° WNW 21:12:41 56° NNE 21:16:20 13° E
STARLINK-1210 3.5 21:09:27 10° SW 21:13:35 77° SSE 21:17:44 10° ENE
Cosmos 1378 Rocket 4.3 21:12:35 23° SE 21:14:36 36° E 21:18:39 10° NNE
NOSS 3 (A) 4.3 21:13:41 21° SSW 21:15:17 62° SE 21:18:14 10° NE
STARLINK-1077 3.8 21:11:20 10° WNW 21:15:25 58° SSW 21:17:29 26° SE
SPOT 5 3.0 21:12:28 20° SSE 21:16:06 90° WSW 21:21:26 10° NNW
Nadezhda 4 Rocket 4.4 21:13:37 20° SSE 21:17:32 45° E 21:23:20 10° NNE
STARLINK-1078 4.1 21:13:34 10° WNW 21:17:40 58° NNE 21:21:05 14° E
STARLINK-1219 3.5 21:14:25 10° WSW 21:18:34 82° SSE 21:22:43 10° ENE
NOSS 3-1 (A) 3.8 21:14:22 10° SW 21:19:55 64° NW 21:26:29 10° NE
STARLINK-1075 3.9 21:16:20 10° WNW 21:20:23 53° SW 21:22:17 28° SSE
ATLAS CENTAUR R/B 4.1 21:20:26 10° NW 21:20:58 11° NNW 21:21:29 10° N
Cosmos 1741 Rocket 4.2 21:16:14 10° NNW 21:21:24 60° ENE 21:24:31 24° SE
STARLINK-1108 4.0 21:18:32 10° WNW 21:22:40 61° NNE 21:25:52 16° E
STARLINK-1211 3.5 21:19:23 10° WSW 21:23:31 87° SSE 21:27:41 10° ENE
Cosmos 2279 Rocket 4.1 21:17:28 10° NNW 21:23:44 76° W 21:28:35 17° S
STARLINK-1093 4.0 21:21:20 10° WNW 21:25:21 49° SW 21:27:04 29° SSE
STARLINK-1244 4.4 21:26:11 28° SE 21:26:11 28° SE 21:29:40 10° ENE
Okean 2 Rocket 3.7 21:22:48 10° NNW 21:27:08 53° W 21:30:13 18° SSW
STARLINK-1071 4.0 21:23:31 10° WNW 21:27:39 64° NNE 21:30:39 18° E
CENTAUR R/B 4.5 21:21:45 10° NW 21:28:28 33° NNE 21:35:56 10° E
STARLINK-1245 3.6 21:24:22 10° WSW 21:28:31 88° NW 21:32:41 10° ENE
STARLINK-1074 4.1 21:26:20 10° WNW 21:30:18 46° SW 21:31:51 31° SSE
STARLINK-1138 4.3 21:30:58 31° SE 21:31:03 31° SE 21:34:42 10° ENE
STARLINK-1110 3.9 21:27:43 10° WNW 21:31:52 66° NNE 21:34:41 19° ESE
BREEZE-M DEB (TANK) 4.0 21:16:22 10° WNW 21:32:05 82° SSW 21:35:38 21° ESE
STARLINK-1203 4.3 21:32:36 31° SSE 21:33:12 33° SE 21:36:59 10° ENE
STARLINK-1233 3.6 21:29:20 10° WSW 21:33:29 83° NNW 21:37:39 10° ENE
ERBS 2.2 21:32:41 21° SSW 21:34:38 56° SE 21:37:54 10° ENE
Cosmos 1850 Rocket 4.0 21:30:10 10° NNW 21:35:33 80° ENE 21:38:31 27° SSE
STARLINK-1143 4.2 21:35:45 33° SSE 21:35:59 33° SE 21:39:44 10° ENE
STARLINK-1124 3.8 21:33:29 10° WNW 21:37:38 70° NNE 21:40:13 22° ESE
STARLINK-1204 3.7 21:34:20 10° WSW 21:38:29 79° NNW 21:42:39 10° ENE
Cosmos 2151 Rocket 4.1 21:35:44 10° NNW 21:40:10 56° W 21:42:53 22° SSW
STARLINK-1088 4.3 21:36:20 10° WNW 21:40:13 39° SW 21:41:24 31° S
STARLINK-1241 4.1 21:40:30 35° SSE 21:40:56 36° SE 21:44:45 10° ENE
Cosmos 2082 Rocket 2.2 21:35:21 10° NNW 21:41:06 81° WSW 21:44:18 27° SSE
STARLINK-1122 3.7 21:38:28 10° WNW 21:42:38 74° NNE 21:45:00 24° ESE
STARLINK-1238 3.8 21:39:18 10° WSW 21:43:26 75° NNW 21:47:36 10° ENE
ERS-1 Rocket 3.8 21:40:28 18° SSW 21:43:55 44° W 21:48:46 10° NNW
Okean 1 Rocket 3.1 21:40:23 10° N 21:44:53 78° E 21:46:51 33° SSE
STARLINK-1115 4.4 21:41:20 10° WNW 21:45:09 36° SW 21:46:10 31° S
STARLINK-1239 4.0 21:45:15 36° SSE 21:45:52 39° SE 21:49:45 10° ENE
SeaSat 1 2.7 21:41:19 10° NE 21:46:06 49° ESE 21:48:19 29° S
STARLINK-1126 3.7 21:43:24 10° WNW 21:47:33 78° NNE 21:49:43 27° ESE
STARLINK-1201 3.9 21:44:19 10° WSW 21:48:27 71° NNW 21:52:36 10° ENE
Cosmos 1833 Rocket 3.4 21:44:20 10° NW 21:49:40 44° WSW 21:52:51 22° SSW
STARLINK-1076 4.5 21:46:21 10° WNW 21:50:07 34° SW 21:50:58 30° SSW
STARLINK-1240 3.9 21:50:02 37° S 21:50:50 42° SE 21:54:46 10° ENE
Aureole 2 Rocket 3.1 21:51:13 33° E 21:51:13 33° E 21:53:44 10° NE
Cosmos 304 Rocket 3.9 21:50:10 32° SSE 21:52:07 54° ESE 21:56:48 10° NNE
SL-4 R/B 1.5 21:49:04 10° NW 21:52:13 54° WSW 21:52:33 50° SSW
Cosmos 1805 3.5 21:48:25 10° N 21:52:17 54° ENE 21:53:26 38° SE
STARLINK-1082 3.6 21:48:26 10° WNW 21:52:36 83° NNE 21:54:35 30° ESE
Meteor 1-15 Rocket 4.4 21:46:43 10° NNW 21:52:40 81° W 21:56:04 27° S
EO 1 Del DPAF 4.0 21:49:41 10° NNE 21:53:10 34° E 21:53:37 33° ESE
STARLINK-1206 3.9 21:49:18 10° WSW 21:53:27 67° NNW 21:57:34 10° ENE
Okean 2 4.2 21:53:51 31° ESE 21:54:41 34° E 21:58:28 10° NNE
Cosmos 1092 Rocket 4.2 21:52:19 28° SSE 21:55:26 55° E 22:01:25 10° NNE
STARLINK-1216 3.8 21:54:49 37° S 21:55:48 45° SE 21:59:46 10° ENE
Cosmos 332 Rocket 3.8 21:52:44 22° SSW 21:55:59 88° ESE 22:00:55 10° NNE
STARLINK-1100 3.5 21:53:24 10° WNW 21:57:34 87° NNE 21:59:21 33° ESE
Cosmos 1455 Rocket 4.2 21:53:44 10° N 21:57:40 32° ENE 21:59:07 26° ESE
Cosmos 2369 Rocket 3.7 21:57:14 18° ESE 21:58:04 19° E 22:01:51 10° ENE
STARLINK-1205 4.0 21:54:18 10° WSW 21:58:26 64° NNW 22:02:33 10° ENE
STARLINK-1237 3.7 21:59:35 37° SSW 22:00:46 49° SE 22:04:47 10° ENE
ISS -3.9 21:57:23 10° WNW 22:00:46 83° SSW 22:01:21 58° SE
Cosmos 1066 Rocket 4.1 21:58:19 25° S 22:01:36 88° W 22:07:00 10° N
STARLINK-1083 3.5 21:58:23 10° WNW 22:02:33 88° SSW 22:04:07 37° ESE
USA 238 DEB 4.5 21:55:38 10° NW 22:02:35 51° NE 22:08:58 13° ESE
USA 238 4.5 21:55:43 10° NW 22:02:40 51° NE 22:09:05 13° ESE
Cosmos 1378 3.1 22:02:30 49° SSE 22:03:16 65° E 22:06:59 10° NNE
STARLINK-1218 4.1 21:59:18 10° WSW 22:03:24 61° NNW 22:07:31 10° ENE
STARLINK-1202 3.7 22:04:22 35° SSW 22:05:44 53° SE 22:09:46 10° ENE
Cosmos 1842 4.1 22:05:25 32° ESE 22:05:54 33° E 22:09:25 10° NNE
STARLINK-1125 3.5 22:03:22 10° WNW 22:07:32 83° SSW 22:08:54 41° SE
STARLINK-1254 4.2 22:04:19 10° W 22:08:24 58° NNW 22:12:31 10° ENE
Cosmos 1943 Rocket 3.1 22:07:36 27° SE 22:08:46 30° ESE 22:13:32 10° NE
Cosmos 1331 Rocket 4.1 22:07:06 35° SSE 22:09:00 55° ESE 22:14:04 10° NNE
STARLINK-1109 3.5 22:08:20 10° WNW 22:12:29 78° SSW 22:13:41 45° SE
SL-8 R/B 3.7 22:07:56 10° W 22:12:46 83° N 22:17:37 10° E
STARLINK-1231 4.3 22:09:20 10° W 22:13:25 56° NNW 22:17:31 10° ENE
Cosmos 1437 Rocket 3.9 22:12:21 19° SW 22:14:34 37° WNW 22:18:08 10° N
STARLINK-1123 4.5 22:10:37 10° WNW 22:14:40 49° NNE 22:18:17 12° E
STARLINK-1246 3.5 22:13:54 31° SW 22:15:39 61° SSE 22:19:44 10° ENE
Cosmos 2278 Rocket 3.5 22:10:22 10° WSW 22:15:41 40° NW 22:21:04 10° NNE
STARLINK-1091 3.5 22:13:19 10° WNW 22:17:28 73° SSW 22:18:27 49° SE
STARLINK-1232 4.4 22:14:21 10° W 22:18:25 54° NNW 22:22:30 10° ENE
STARLINK-1097 4.4 22:15:36 10° WNW 22:19:39 51° NNE 22:23:04 14° E
Terra 3.1 22:17:24 20° SW 22:19:49 32° W 22:24:06 10° NNW
STARLINK-1224 3.5 22:18:40 29° SW 22:20:37 66° SSE 22:24:44 10° ENE
ALOS 2 3.6 22:19:22 28° ESE 22:20:54 37° ENE 22:24:57 10° N
STARLINK-1072 3.5 22:18:19 10° WNW 22:22:27 68° SSW 22:23:15 53° SSE
Lacrosse 5 2.2 22:17:47 10° WNW 22:22:40 50° SW 22:24:01 39° S
STARLINK-1208 4.5 22:19:20 10° W 22:23:23 52° NNW 22:27:27 10° ENE
STARLINK-1099 4.3 22:20:34 10° WNW 22:24:38 53° NNE 22:27:49 16° E
Spot 4 3.8 22:23:24 40° SSE 22:25:11 81° ENE 22:30:04 10° NNW
STARLINK-1225 3.5 22:23:26 27° SW 22:25:36 71° SSE 22:29:44 10° ENE
Thor Agena Rocket 3.5 22:20:23 10° NNE 22:25:43 83° ESE 22:28:05 34° S
Crew Dragon 3.1 22:24:01 10° WNW 22:24:19 13° WNW 22:24:19 13° WNW
STARLINK-1096 3.6 22:23:19 10° WNW 22:27:26 64° SW 22:28:03 55° S
STARLINK-1104 4.3 22:25:33 10° WNW 22:29:38 55° NNE 22:32:36 18° E
STARLINK-1230 3.4 22:28:12 25° SW 22:30:34 76° SSE 22:34:42 10° ENE
SL-4 R/B 2.9 22:31:54 23° NNE 22:31:54 23° NNE 22:33:03 10° N
BREEZE-M DEB (TANK) 3.4 22:17:45 10° WSW 22:31:11 80° SSE 22:34:49 10° ENE
STARLINK-1079 3.6 22:28:17 10° WNW 22:32:22 59° SW 22:32:48 55° S
Cosmos 1544 Rocket 3.9 22:29:18 10° N 22:33:33 53° ENE 22:34:36 42° ESE
EXPRESS MD2 4.1 22:30:08 14° SW 22:33:47 71° SSE 22:42:30 10° ENE
STARLINK-1144 4.2 22:30:32 10° WNW 22:34:38 57° NNE 22:37:23 20° E
STARLINK-1243 3.4 22:32:59 23° SW 22:35:32 81° SSE 22:39:41 10° ENE
Cosmos 1726 4.1 22:32:57 10° NNE 22:35:33 18° ENE 22:36:25 17° E
STARLINK-1116 3.7 22:33:17 10° WNW 22:37:20 55° SW 22:37:35 54° SSW
Cosmos 1766 3.7 22:33:44 10° NNW 22:37:37 52° W 22:38:27 43° SW
SL-27 R/B 3.4 22:35:36 10° N 22:39:03 40° ENE 22:39:37 36° E
STARLINK-1103 4.1 22:35:31 10° WNW 22:39:38 60° NNE 22:42:11 22° E
STARLINK-1236 3.5 22:37:45 20° WSW 22:40:31 86° SSE 22:44:40 10° ENE
Abrixas rocket 3.3 22:39:28 10° W 22:41:14 33° W 22:41:14 33° W
Cosmos 1553 Rocket 4.1 22:36:25 10° N 22:42:46 67° ENE 22:45:31 34° SSE
Cosmos 1953 3.8 22:39:23 10° NNE 22:42:48 26° ENE 22:43:45 23° E
Cosmos 1461 2.9 22:43:04 41° SW 22:44:29 84° NW 22:48:53 10° NE
STARLINK-1101 4.0 22:40:30 10° WNW 22:44:37 62° NNE 22:46:57 24° E
Cosmos 1271 Rocket 3.5 22:46:32 37° E 22:46:39 37° E 22:50:14 10° NNE
STARLINK-1094 3.9 22:43:17 10° WNW 22:47:10 47° SW 22:47:10 47° SW
USA 215 3.3 22:45:48 33° SSE 22:48:53 63° SW 22:55:24 10° WNW
Cosmos 2026 Rocket 4.0 22:45:53 33° SSW 22:48:57 83° W 22:55:20 10° N
STARLINK-1102 3.9 22:45:30 10° WNW 22:49:38 66° NNE 22:51:45 27° E
STARLINK-1269 3.6 22:47:16 17° WSW 22:50:27 85° NNW 22:54:37 10° ENE
Aureole 3 Rocket 3.9 22:45:49 10° N 22:51:01 83° E 22:54:05 35° SSE
Cosmos 1758 3.5 22:47:24 10° N 22:51:24 59° ENE 22:52:04 51° ESE
STARLINK-1117 4.1 22:48:17 10° WNW 22:51:56 43° SW 22:51:56 43° SW
Cosmos 1707 3.4 22:53:56 40° ESE 22:54:09 41° E 22:57:50 10° NNE
STARLINK-1111 3.8 22:50:28 10° WNW 22:54:37 69° NNE 22:56:31 30° E
STARLINK-1200 3.6 22:52:04 15° WSW 22:55:28 80° NNW 22:59:37 10° ENE
Cosmos 1900 4.3 22:51:47 10° NW 22:56:50 89° NE 22:58:31 43° SE
Cosmos 1733 4.0 22:53:18 10° NNW 22:56:55 39° W 22:57:26 37° WSW
STARLINK-1078 4.3 22:53:17 10° WNW 22:56:43 39° WSW 22:56:43 39° WSW
NOSS 2-2 (D) 3.0 22:57:13 73° SSW 22:57:33 85° SE 23:01:35 10° NE
STARLINK-1073 3.7 22:55:27 10° WNW 22:59:36 73° NNE 23:01:19 34° ESE
NOSS 3-2 (C) 4.2 22:52:58 10° NW 23:00:20 69° NE 23:07:07 17° SE
STARLINK-1192 3.7 22:56:50 13° WSW 23:00:27 76° NNW 23:04:36 10° ENE
STARLINK-1108 4.5 22:58:17 10° WNW 23:01:30 35° WSW 23:01:30 35° WSW
Cosmos 1975 Rocket 3.7 23:00:54 35° SW 23:02:24 51° WNW 23:06:45 10° N
STARLINK-1121 3.7 23:00:25 10° WNW 23:04:34 77° NNE 23:06:04 38° ESE
STARLINK-1244 3.8 23:01:36 12° WSW 23:05:25 72° NNW 23:09:33 10° ENE
STARLINK-1106 3.6 23:05:24 10° WNW 23:09:33 81° NNE 23:10:51 43° ESE
STARLINK-1138 3.9 23:06:22 11° WSW 23:10:24 69° NNW 23:14:33 10° ENE
NOSS 3-4 (A) 4.3 23:10:07 28° SE 23:11:01 29° ESE 23:16:16 10° ENE
NOSS 3-4 (C) 4.3 23:10:13 28° SE 23:11:07 29° ESE 23:16:22 10° ENE
ERBS 4.4 23:08:13 10° W 23:11:08 28° NNW 23:14:04 10° NE
Cosmos 1242 Rocket 2.5 23:11:36 74° WSW 23:11:47 78° W 23:15:29 10° N
Meteor 2-10 4.1 23:07:13 10° N 23:12:17 63° ENE 23:13:53 41° SE
STARLINK-1203 3.9 23:08:39 10° WSW 23:12:50 67° NNW 23:17:02 10° ENE
Aureole 3 4.2 23:10:10 10° N 23:13:33 31° ENE 23:13:55 30° E
STARLINK-1112 3.5 23:10:23 10° WNW 23:14:33 85° NNE 23:15:39 48° ESE
STARLINK-1143 3.9 23:11:16 10° WSW 23:15:24 65° NNW 23:19:32 10° ENE
ATLAS 3B R/B 3.7 23:09:53 10° NW 23:16:17 43° NE 23:22:51 10° ESE
NOSS 2-2 (E) 3.8 23:15:11 33° WSW 23:16:33 53° NW 23:20:42 10° NE
Cosmos 2266 Rocket 4.2 23:16:09 36° SSE 23:18:28 57° E 23:24:23 10° NNE
Cosmos 1674 4.3 23:18:32 22° E 23:18:42 22° E 23:21:40 10° NE
STARLINK-1128 3.5 23:15:22 10° WNW 23:19:32 90° SSW 23:20:25 55° ESE
ATLAS CENTAUR R/B 3.7 23:20:47 13° E 23:20:47 13° E 23:22:14 10° E
Cosmos 1470 2.9 23:16:30 10° NNW 23:20:19 55° W 23:20:37 54° WSW
STARLINK-1241 4.0 23:16:16 10° WSW 23:20:23 62° NNW 23:24:31 10° ENE
CENTAUR R/B 3.3 23:12:29 10° NW 23:20:27 76° NE 23:27:41 17° SE
Cosmos 1503 Rocket 4.2 23:17:26 10° NNW 23:22:43 66° ENE 23:24:51 36° SE
SeaSat 1 4.1 23:19:07 10° NNE 23:23:26 31° NW 23:27:44 10° WSW
Cosmos 2082 Rocket 4.3 23:21:38 10° WNW 23:24:14 13° W 23:26:09 11° WSW
STARLINK-1113 3.5 23:20:21 10° WNW 23:24:31 85° SSW 23:25:12 61° SE
STARLINK-1239 4.1 23:21:16 10° W 23:25:22 59° NNW 23:29:29 10° ENE
STARLINK-1119 3.4 23:25:20 10° WNW 23:29:29 80° SSW 23:29:59 67° SE
BREEZE-M DEB 4.0 23:25:54 10° W 23:29:30 82° N 23:42:46 10° E
STARLINK-1240 4.2 23:26:17 10° W 23:30:22 57° NNW 23:34:29 10° ENE
BREEZE-M DEB (TANK) 2.9 23:27:43 10° WNW 23:31:11 88° NNE 23:36:13 10° ESE
Cosmos 1867 4.3 23:26:44 10° NNW 23:32:06 52° NE 23:36:08 17° ESE
STARLINK-1114 3.4 23:30:20 10° WNW 23:34:28 75° SSW 23:34:46 70° S
Helios 1A 2.9 23:33:57 59° SSW 23:34:32 69° WSW 23:38:42 10° NNW
Cosmos 883 Rocket 4.5 23:28:22 10° N 23:34:33 74° E 23:37:08 37° SSE
STARLINK-1216 4.3 23:31:17 10° W 23:35:22 54° NNW 23:39:27 10° ENE
Cosmos 1455 Rocket 4.4 23:31:45 10° NNW 23:35:23 26° W 23:36:14 25° WSW
Cosmos 968 Rocket 3.4 23:31:28 10° NNW 23:36:39 74° WSW 23:38:01 48° S
Meteor 2-19 Rocket 4.4 23:34:37 40° S 23:37:00 77° E 23:43:10 10° NNE
Cosmos 1354 Rocket 4.1 23:32:19 10° NNW 23:37:38 77° ENE 23:39:37 39° SE
ATLAS 2AS CENTAUR R/B 3.3 23:35:54 34° S 23:39:17 55° ESE 23:47:00 10° NE
Cosmos 1908 4.0 23:35:45 10° N 23:39:24 42° ENE 23:40:02 38° ESE
STARLINK-1130 (DARKSAT) 3.4 23:35:17 10° WNW 23:39:25 70° SSW 23:39:32 70° SSW
NOSS 2-2 (C) 4.3 23:37:49 26° W 23:39:26 42° NW 23:43:25 10° NNE
STARLINK-1237 4.4 23:36:18 10° W 23:40:22 52° NNW 23:44:27 10° ENE
Cosmos 2369 Rocket 2.2 23:38:59 36° SW 23:41:25 77° WNW 23:47:07 10° NNE
STARLINK-1084 3.5 23:40:16 10° WNW 23:44:19 65° SW 23:44:19 65° SW
STARLINK-1202 4.4 23:41:20 10° W 23:45:23 51° NNW 23:49:27 10° ENE
Cosmos 1486 Rocket 4.4 23:40:29 10° NNW 23:45:37 49° WSW 23:46:50 41° SW
CZ-2D R/B 4.4 23:44:19 10° ENE 23:46:11 12° E 23:48:02 10° ESE
NOSS 3-2 (A) 4.2 23:39:03 10° NW 23:46:26 57° WSW 23:50:12 33° S
Cosmos 1025 Rocket 3.5 23:45:35 42° WSW 23:46:30 50° WNW 23:50:41 10° N
Cosmos 1726 Rocket 4.3 23:44:14 10° N 23:48:22 43° ENE 23:49:40 33° ESE
STARLINK-1098 3.6 23:45:17 10° WNW 23:49:07 59° SW 23:49:07 59° SW
Cosmos 2315 Rocket 4.0 23:43:14 10° N 23:49:29 78° E 23:52:12 36° SSE
Cosmos 1943 Rocket 2.9 23:49:04 23° WSW 23:52:16 48° NW 23:57:42 10° NNE
Helios 1B rocket 2.7 23:48:14 10° NNE 23:52:18 54° E 23:52:51 50° SE
STARLINK-1123 3.8 23:50:16 10° WNW 23:53:53 53° WSW 23:53:53 53° WSW
SL-8 R/B 3.7 23:50:32 10° WNW 23:55:15 57° SSW 23:55:50 53° S
KORONAS-FOTON 4.0 23:55:12 52° ESE 23:55:29 54° E 23:59:14 10° NNE
Resurs 1-4 Rocket 4.3 23:53:20 10° NE 23:56:23 15° E 23:59:06 11° ESE
